User: anonymous
Location: Caltech
(34.1382°N, 118.1253°W)
Time: 06:03:03
(UTC-07:00)
Language:

TMSAT-1 - Orbit

View from above orbital plane
View from above orbital plane
View from above satellite
View from above satellite

Ground track
Ground track

The orbit data is extracted from the following two-line orbital elements,

1 25396U 98043C   14292.45674490  .00000282  00000-0  14061-3 0  9803
2 25396 098.4558 249.4442 0001441 282.0886 187.0216 14.24210017845845
Epoch (UTC): 19 October 2014 10:57:42
Eccentricity: 0.0001441
inclination: 98.4558°
perigee height: 810 km
apogee height: 812 km
right ascension of ascending node: 249.4442°
argument of perigee: 282.0886°
revolutions per day: 14.24210017
mean anomaly at epoch: 187.0216°
orbit number at epoch: 84584

The dashed part of the orbit path shows where the satellite is in the earth's shadow,  

DLR